Regional Weather Roundup
Issued by NWS

Home | Current Version | Previous Version | Text Only | Print | Product List | Glossary Off
Versions: 1 2 3 4 5 6 7 8 9 10 11 12 13 14 15 16 17 18 19 20 21 22 23 24 25 26 27 28 29 30 31 32 33 34 35 36 37 38 39 40 41 42 43 44 45 46 47 48 49 50

742
ASUS45 KPSR 231210
RWRAZ

ARIZONA HOURLY REGIONAL WEATHER ROUNDUP
NATIONAL WEATHER SERVICE PHOENIX AZ
500 AM MST TUE AUG 23 2016

NOTE: FAIR INDICATES FEW OR NO CLOUDS BELOW 12,000 FEET WITH NO
SIGNIFICANT WEATHER AND/OR OBSTRUCTIONS TO VISIBILITY.

AZZ001>003-036-231300-
NORTHWEST ARIZONA

CITY           SKY/WX    TMP DP  RH WIND       PRES   REMARKS
BULLHEAD CITY  MOCLDY    77  61  57 NE13      29.91S
KINGMAN        CLOUDY    62  58  86 SE6       30.07R
6HR MIN TEMP:  60; 6HR MAX TEMP:  67; 6HR PCP:  0.21;

$$

AZZ004>008-015-016-018-231300-
NORTH CENTRAL ARIZONA

CITY           SKY/WX    TMP DP  RH WIND       PRES   REMARKS
GRAND CANYON   PTCLDY    50  46  86 CALM      30.23R
6HR MIN TEMP:  49; 6HR MAX TEMP:  57; 6HR PCP: TRACE;

PRESCOTT       MOCLDY    60  53  77 S7        30.17F
6HR MIN TEMP:  58; 6HR MAX TEMP:  60;

FLAGSTAFF      CLOUDY    52  47  83 S9        30.28S
6HR MIN TEMP:  48; 6HR MAX TEMP:  53;

PAYSON         RAIN      59  55  88 N8        30.27R
PAGE           MOCLDY    68  47  46 E5        30.07F
6HR MIN TEMP:  68; 6HR MAX TEMP:  75; 6HR PCP: TRACE;

$$

AZZ009>014-017-231300-
NORTHEAST ARIZONA

CITY           SKY/WX    TMP DP  RH WIND       PRES   REMARKS
WINSLOW        CLOUDY    66  51  58 W16       30.17R
6HR MIN TEMP:  63; 6HR MAX TEMP:  68;

SAINT JOHNS    PTCLDY    57  48  72 S6        30.20R
6HR MIN TEMP:  55; 6HR MAX TEMP:  61;

WINDOW ROCK    PTCLDY    47  45  93 CALM      30.25R
6HR MIN TEMP:  47; 6HR MAX TEMP:  56;

SHOW LOW       HVY RAIN  54  48  82 SW17G23   30.28R
$$

AZZ023-231300-
GREATER PHOENIX AREA

CITY           SKY/WX    TMP DP  RH WIND       PRES   REMARKS
PHOENIX        MOCLDY    78  63  59 N10       29.95R THUNDER
6HR MIN TEMP:  77; 6HR MAX TEMP:  88; 6HR PCP:  0.01;

BUCKEYE        MOCLDY    75  59  57 E12       29.94R
LUKE AFB       MOCLDY    75  64  69 SE9       29.95R
6HR MIN TEMP:  75; 6HR MAX TEMP:  87; 6HR PCP:  0.04;

DEER VALLEY    MOCLDY    75  58  55 NE14      29.94F
6HR MIN TEMP:  71; 6HR MAX TEMP:  86; 6HR PCP:  0.24;

SCOTTSDALE     MOCLDY    75  61  61 NE15G24   29.97F
6HR MIN TEMP:  73; 6HR MAX TEMP:  88; 6HR PCP:  0.03;

$$

AZZ027-028-231300-
SOUTHWEST MARICOPA COUNTY AND PINAL COUNTY

CITY           SKY/WX    TMP DP  RH WIND       PRES   REMARKS
CASA GRANDE    PTCLDY    79  57  47 N16G22    29.99R
6HR MIN TEMP:  79; 6HR MAX TEMP:  88;

GILA BEND      FAIR      80  59  47 N3        29.91S
6HR MIN TEMP:  80; 6HR MAX TEMP:  87;

$$

AZZ503-504-507>509-231300-
SOUTHEAST ARIZONA

CITY           SKY/WX    TMP DP  RH WIND       PRES   REMARKS
TUCSON         PTCLDY    73  58  59 SE5       30.05R
6HR MIN TEMP:  73; 6HR MAX TEMP:  82;

DAVIS-MONTHAN  PTCLDY    72  58  62 S8        30.03S
6HR MIN TEMP:  71; 6HR MAX TEMP:  78;

NOGALES        PTCLDY    61  55  81 CALM      30.13R
6HR MIN TEMP:  61; 6HR MAX TEMP:  70;

SIERRA VISTA   CLEAR     65  52  63 NE7       30.18R
6HR MIN TEMP:  62; 6HR MAX TEMP:  73;

DOUGLAS        CLEAR     61  52  72 NE6       30.13S
6HR MIN TEMP:  61; 6HR MAX TEMP:  68;

SAFFORD        CLEAR     69  44  40 NE6       30.03S
6HR MIN TEMP:  67; 6HR MAX TEMP:  78;

$$

AZZ020-021-025-026-031-231300-
SOUTHWEST ARIZONA

CITY           SKY/WX    TMP DP  RH WIND       PRES   REMARKS
YUMA           NOT AVBL
$$

CAZ031-033-041-043-047-048-061-231300-
SOUTHERN CALIFORNIA

CITY           SKY/WX    TMP DP  RH WIND       PRES   REMARKS
DOWNTOWN L.A.  CLEAR     64  59  83 CALM      29.95S
6HR MIN TEMP:  64; 6HR MAX TEMP:  66;

L.A. AIRPORT   PTCLDY    65  59  81 CALM      29.96S
6HR MIN TEMP:  65; 6HR MAX TEMP:  66;

SAN DIEGO      FOG       63  62  97 CALM      29.97S VSB 3/4
6HR MIN TEMP:  63; 6HR MAX TEMP:  67;

BURBANK        CLEAR     65  53  65 CALM      29.96S
6HR MIN TEMP:  65; 6HR MAX TEMP:  69;

ONTARIO        PTCLDY    67  57  70 CALM      29.97S
6HR MIN TEMP:  65; 6HR MAX TEMP:  72;

RIVERSIDE      CLEAR     67  58  72 CALM      29.97S
6HR MIN TEMP:  67; 6HR MAX TEMP:  72;

PALM SPRINGS   CLEAR     79  52  38 CALM      29.88S
6HR MIN TEMP:  79; 6HR MAX TEMP:  91;

EL CENTRO NAS  CLEAR     79  33  19 W9        29.85R
6HR MIN TEMP:  78; 6HR MAX TEMP:  90;

IMPERIAL       CLEAR     80  42  25 W8        29.82S
6HR MIN TEMP:  78; 6HR MAX TEMP:  91;

BLYTHE         CLEAR     83  57  41 N9        29.86S
6HR MIN TEMP:  83; 6HR MAX TEMP:  89;

NEEDLES        PTCLDY    76  65  68 N7        29.93R
6HR MIN TEMP:  76; 6HR MAX TEMP:  83;

$$

NVZ020-UTZ003-231300-
SOUTHERN NEVADA-UTAH

CITY           SKY/WX    TMP DP  RH WIND       PRES   REMARKS
LAS VEGAS      MOCLDY    71  58  63 NE7       29.98R
6HR MIN TEMP:  71; 6HR MAX TEMP:  73; 6HR PCP: TRACE;

SALT LAKE CITY PTCLDY    70  42  36 S12       30.02R
6HR MIN TEMP:  70; 6HR MAX TEMP:  79;

$$

NMZ009-TXZ055-231300-
NEW MEXICO-WEST TEXAS

CITY           SKY/WX    TMP DP  RH WIND       PRES   REMARKS
ALBUQUERQUE    PTCLDY    59  57  93 SW5       30.20R
6HR MIN TEMP:  58; 6HR MAX TEMP:  65;

EL PASO        MOCLDY    70  63  78 CALM      30.10S
6HR MIN TEMP:  69; 6HR MAX TEMP:  71;

$$


........................KEY........................
SKY/WX - SKY CONDITION/WEATHER
TMP    - TEMPERATURE IN FAHRENHEIT
DP     - DEW POINT IN FAHRENHEIT
RH     - RELATIVE HUMIDITY IN PERCENT
WIND   - DIRECTION AND SPEED IN MILES PER HOUR (MPH)
VRB    - VARIABLE WIND DIRECTION
PRES   - MEAN SEA LEVEL PRESSURE IN INCHES OF MERCURY
         F - FALLING PRESSURE   R - RISING PRESSURE
         S - STEADY PRESSURE
VSB    - VISIBILITY IN MILES
HX     - HEAT INDEX IN FAHRENHEIT
WCI    - WIND CHILL INDEX IN FAHRENHEIT
TC     - TEMPERATURE IN CELSIUS WHICH IS ALSO KNOWN AS
         TEMPERATURE IN CENTIGRADE
AFB    - AIR FORCE BASE
         LUKE AFB IS LUKE AIR FORCE BASE
         DAVIS-MONTHAN IS DAVIS-MONTHAN AIR FORCE BASE
NAS    - NAVAL AIR STATION
         EL CENTRO NAS IS EL CENTRO NAVAL AIR STATION
N/A    - NOT AVAILABLE





USA.gov is the U.S. government's official web portal to all federal, state and local government web resources and services.